COSMOS 2506 DEB, 47212

Orbit data source: Space-Track

COSMOS 2506 DEB, 47212 is space debris in SSO originally from a launch on Tue, 23 Jun 2015 UTC launched from the Plesetsk Missile And Space Complex (PKMTR). Debris objects in space refer to the collection of defunct objects orbiting the Earth. Examples of debris include non-operational satellites, rocket bodies, and fragments generated from explosions, collisions, or faulty payload assembly.

Loading next visibility...
Identifier
47212, 2015-029C
Orbit
SSO
Last TLE update
1 day ago
Origin
Manufacturer
Unknown
Mission
Spacecraft
Bus & Motor
Unknown
Mass
Unknown
Launch date (UTC)
2015-06-23 (10 years ago)
Launch vehicle
Unknown
Launch site
Plesetsk Missile And Space Complex (PKMTR)
Object type
Payload
Rocket body
Debris
Shape & HBR
Unknown
Radar Cross Section
Small (<0.1 m²)

Expand to show TLE details & history

TLE from 1 day ago
0 COSMOS 2506 DEB
1 47212U 15029C   25185.15115115  .00003485  00000-0  60334-3 0  9993
2 47212  98.1537 253.5849 0008259 152.0766 208.0884 14.68947218246471
Epoch: 2025-07-04T03:37Z
TLE epoch observation values (Epoch: 2025-07-04T03:37:39.459Z)
Latitude
Longitude
-83.23718°
Altitude
672.563 km
Speed
7.518 km/s
True Right ascension
16h 54m 20s
True Declination
0° 00' 00"
Sunlit
Object was in full shadow at epoch
Visualization orbit readout
Latitude
-79.02738°
Longitude
50.45536°
Altitude
694.677 km
Speed
7.507 km/s
Apparent Right ascension
03h 12m 51s
Apparent Declination
-60° 49' 49"
Sunlit
Object is in daylight
Visualization observer readout
Local Sidereal Time
15:35:27
Azimuth
172.373° S
Elevation
-68.796°
Doppler factor
1
Orbital elements
Apogee altitude
667.312 km
Perigee altitude
655.684 km
Semi-major axis
7,039.635 km
Eccentricity
0.00083
Inclination
98.1537°
RAAN
253.5849°
Arg. of periapsis
152.0766°
True anomaly
Unknown
Mean anomaly
208.0884°
Eccentric anomaly
Unknown
Mean motion
3.67467 °/min
Orbital period
97.97 mins
BSTAR
0.00060334
Loading maneuver chart data...
Loading SW <> Apogee altitude chart data...
Loading historical data...
Loading historical data...
Loading historical data...
Loading historical data...
Loading historical data...
Loading historical data...
Loading historical data...
Other satellites on launch #29 in the year 2015 (2015-06-23 UTC)

COSMOS 2506 DEB Visibility forecast

Observer location: undefined°, undefined°

Span
Click to sort rows by Start time (UTC) header in descending order
Start Az.
Max El. time (UTC)
Max El. Az.
Max El.
End time (UTC)
End Az.
8 mins2025-07-05 04:16:20.908Z150.378° SSE2025-07-05 04:20:20.908Z64.26° ENE40.276°2025-07-05 04:24:20.908Z356.152° N
7 mins2025-07-05 17:48:20.908Z359.172° N2025-07-05 17:51:20.908Z290.627° WNW39.748°2025-07-05 17:55:20.908Z210.286° SW
|